Flag for Germany Weather past 2 weeks in Braunschweig, Lower Saxony, Germany

Now
66 °F

Sunny.


Feels Like: 66 °F
Forecast: 53 / 65 °F
Wind: 15 mph from Southwest

Location: Braunschweig

Current Time: Aug 22, 2014 at 4:43:16 PM

Latest Report: Aug 22, 2014 at 4:20 PM


Visibility: 10 mi

Pressure: 29.86 "Hg

Humidity: 49%

Dew point: 46 °F

Location of BraunschweigLocation

Historic Weather in Braunschweig — Graph

°F

Braunschweig temperature yesterday

Maximum temperature yesterday: 64 °F (at 2:50 PM)
Minimum temperature yesterday: 50 °F (at 4:50 AM)
Average temperature yesterday: 59 °F

Past Weeks' High & Low Weather Summary

 TemperatureHumidityPressure
High81 °F (Aug 8, 5:20 PM)100% (Aug 8, 6:50 AM)30.01 "Hg (Aug 8, 6:50 AM)
Low48 °F (Aug 20, 6:50 AM)33% (Aug 11, 4:50 PM)29.59 "Hg (Aug 18, 1:50 PM)
Average63 °F68%29.84 "Hg
* Reported Aug 7 3:20 PM — Aug 22 3:50 PM, Braunschweig, Weather by CustomWeather, © 2014

Note: Actual official high and low records may vary slightly from our data, if they occured in-between our weather recording intervals... More about our weather records

Advertising

Braunschweig weather history for previous 24 hours

 ConditionsComfort  
Time TempWeatherWind HumidityBarometerVisibility
3:50 PM
Aug 22
66 °FPassing clouds.8 mph49%29.86 "HgN/A
3:20 PM63 °FSunny.6 mph59%29.86 "Hg10 mi
2:50 PM61 °FScattered showers. Mostly cloudy.12 mph63%29.89 "HgN/A
2:20 PM64 °FSprinkles. Broken clouds.9 mph49%29.89 "HgN/A
1:50 PM66 °FPassing clouds.16 mph49%29.89 "HgN/A
1:20 PM64 °FPassing clouds.12 mph52%29.89 "HgN/A
12:50 PM64 °FSunny.15 mph52%29.89 "Hg10 mi
12:20 PM64 °FSunny.16 mph49%29.89 "Hg10 mi
11:50 AM64 °FPassing clouds.13 mph52%29.92 "HgN/A
11:20 AM64 °FPassing clouds.14 mph49%29.92 "HgN/A
10:50 AM63 °FSunny.13 mph52%29.92 "Hg10 mi
10:20 AM63 °FPassing clouds.13 mph52%29.92 "HgN/A
9:50 AM63 °FSunny.12 mph56%29.92 "Hg10 mi
9:20 AM61 °FSunny.9 mph63%29.92 "Hg10 mi
8:50 AM59 °FSunny.10 mph63%29.92 "Hg10 mi
8:20 AM57 °FSunny.10 mph67%29.92 "Hg10 mi
7:50 AM55 °FSunny.8 mph77%29.92 "Hg10 mi
7:20 AM54 °FSunny.6 mph77%29.92 "Hg10 mi
6:50 AM54 °FClear.6 mph77%29.92 "Hg10 mi
9:50 PM
Aug 21
54 °FClear.5 mph77%29.98 "Hg10 mi
9:20 PM55 °FSunny.5 mph72%29.98 "Hg10 mi
8:50 PM57 °FSunny.5 mph67%29.95 "Hg10 mi
8:20 PM59 °FSunny.5 mph63%29.95 "Hg10 mi
7:50 PM61 °FSunny.6 mph55%29.98 "Hg10 mi
7:20 PM63 °FSunny.9 mph49%29.98 "Hg10 mi
6:50 PM63 °FPassing clouds.12 mph49%29.98 "HgN/A
6:20 PM64 °FPassing clouds.9 mph49%29.98 "HgN/A
5:50 PM64 °FPassing clouds.10 mph49%29.98 "HgN/A
5:20 PM63 °FSunny.10 mph52%29.98 "Hg10 mi
4:50 PM64 °FPassing clouds.9 mph49%29.98 "HgN/A
4:20 PM64 °FBroken clouds.9 mph49%29.98 "HgN/A
Weather by CustomWeather, © 2014

See weather overviewHow to use our weather pages